| time (UTC) | temp F | wind direction | speed MPH | gust MPH | rain 1hr in | rain 24hr in | rain mn in | humidity % | barometer mb |
| 20260510134515 | 49 | 291 | 1.0 | 3.0 | 0.00 | 0.73 | 0.00 | 100 | 1013.0 |
| 20260510133014 | 49 | 89 | 1.0 | 2.0 | 0.00 | 0.73 | 0.00 | 100 | 1013.2 |
| 20260510132515 | 48 | 89 | 1.0 | 2.0 | 0.00 | 0.73 | 0.00 | 100 | 1013.3 |
| 20260510132015 | 48 | 89 | 0.0 | 2.0 | 0.00 | 0.73 | 0.00 | 100 | 1013.3 |
| 20260510131515 | 48 | 181 | 0.0 | 2.0 | 0.00 | 0.73 | 0.00 | 100 | 1013.5 |
| 20260510130514 | 47 | 181 | 1.0 | 2.0 | 0.00 | 0.73 | 0.00 | 100 | 1013.3 |
| 20260510130015 | 47 | 181 | 1.0 | 2.0 | 0.00 | 0.80 | 0.00 | 100 | 1013.4 |
| 20260510125514 | 47 | 339 | 0.0 | 2.0 | 0.00 | 0.80 | 0.00 | 100 | 1013.4 |
| 20260510125015 | 47 | 341 | 1.0 | 2.0 | 0.00 | 0.80 | 0.00 | 100 | 1013.3 |
| 20260510124016 | 47 | 322 | 1.0 | 3.0 | 0.00 | 0.80 | 0.00 | 100 | 1013.2 |
| 20260510123516 | 47 | 145 | 1.0 | 3.0 | 0.00 | 0.80 | 0.00 | 100 | 1013.2 |
| 20260510122516 | 46 | 155 | 1.0 | 3.0 | 0.00 | 0.80 | 0.00 | 100 | 1013.2 |
| 20260510122016 | 46 | 56 | 1.0 | 3.0 | 0.00 | 0.80 | 0.00 | 100 | 1013.1 |
| 20260510121016 | 46 | 32 | 1.0 | 3.0 | 0.00 | 0.80 | 0.00 | 100 | 1013.1 |
| 20260510120016 | 46 | 138 | 1.0 | 3.0 | 0.00 | 0.80 | 0.00 | 100 | 1013.2 |
| 20260510115516 | 46 | 128 | 0.0 | 3.0 | 0.00 | 0.80 | 0.00 | 100 | 1013.1 |
| 20260510115016 | 46 | 101 | 0.0 | 3.0 | 0.00 | 0.80 | 0.00 | 100 | 1013.2 |
| 20260510114516 | 46 | 355 | 1.0 | 3.0 | 0.00 | 0.80 | 0.00 | 100 | 1013.1 |
| 20260510114016 | 46 | 69 | 1.0 | 2.0 | 0.00 | 0.80 | 0.00 | 100 | 1013.1 |
| 20260510113516 | 45 | 216 | 1.0 | 2.0 | 0.00 | 0.80 | 0.00 | 100 | 1013.1 |
| 20260510113016 | 45 | 216 | 1.0 | 2.0 | 0.00 | 0.80 | 0.00 | 100 | 1013.0 |
| 20260510112516 | 45 | 216 | 1.0 | 2.0 | 0.00 | 0.80 | 0.00 | 100 | 1013.2 |
| 20260510112016 | 45 | 216 | 1.0 | 4.0 | 0.00 | 0.80 | 0.00 | 100 | 1013.1 |
| 20260510111016 | 45 | 152 | 1.0 | 4.0 | 0.00 | 0.80 | 0.00 | 100 | 1013.0 |
| 20260510110017 | 45 | 207 | 0.0 | 2.0 | 0.00 | 0.80 | 0.00 | 100 | 1012.7 |
| 20260510105016 | 45 | 209 | 0.0 | 3.0 | 0.00 | 0.80 | 0.00 | 100 | 1012.6 |
| 20260510104516 | 45 | 140 | 0.0 | 1.0 | 0.00 | 0.80 | 0.00 | 100 | 1012.4 |
| 20260510104016 | 45 | 140 | 1.0 | 2.0 | 0.00 | 0.80 | 0.00 | 100 | 1012.5 |
| 20260510103516 | 45 | 140 | 1.0 | 5.0 | 0.00 | 0.80 | 0.00 | 100 | 1012.2 |
| 20260510103016 | 45 | 140 | 1.0 | 5.0 | 0.00 | 0.80 | 0.00 | 100 | 1012.2 |
| 20260510102516 | 45 | 285 | 0.0 | 2.0 | 0.00 | 0.80 | 0.00 | 100 | 1012.1 |
| 20260510102016 | 45 | 142 | 0.0 | 2.0 | 0.00 | 0.80 | 0.00 | 100 | 1012.3 |
| 20260510101516 | 45 | 126 | 1.0 | 3.0 | 0.00 | 0.80 | 0.00 | 100 | 1012.1 |
| 20260510101016 | 45 | 129 | 1.0 | 3.0 | 0.00 | 0.80 | 0.00 | 100 | 1012.0 |
| 20260510100517 | 45 | 53 | 0.0 | 2.0 | 0.00 | 0.80 | 0.00 | 100 | 1012.1 |
| 20260510100016 | 45 | 53 | 0.0 | 2.0 | 0.00 | 0.80 | 0.00 | 100 | 1011.9 |
| 20260510095516 | 45 | 70 | 0.0 | 2.0 | 0.00 | 0.80 | 0.00 | 100 | 1011.8 |
| 20260510095016 | 45 | 70 | 1.0 | 3.0 | 0.00 | 0.80 | 0.00 | 100 | 1011.8 |
| 20260510094516 | 45 | 70 | 1.0 | 3.0 | 0.00 | 0.80 | 0.00 | 100 | 1011.7 |
| 20260510094016 | 45 | 65 | 0.0 | 1.0 | 0.00 | 0.80 | 0.00 | 100 | 1011.5 |
| 20260510093517 | 45 | 65 | 0.0 | 3.0 | 0.00 | 0.80 | 0.00 | 100 | 1011.4 |
| 20260510093016 | 45 | 66 | 0.0 | 2.0 | 0.00 | 0.80 | 0.00 | 100 | 1011.3 |
| 20260510092516 | 45 | 66 | 0.0 | 3.0 | 0.00 | 0.80 | 0.00 | 100 | 1011.4 |
| 20260510092015 | 45 | 119 | 0.0 | 2.0 | 0.00 | 0.80 | 0.00 | 100 | 1011.4 |
| 20260510091516 | 45 | 119 | 0.0 | 2.0 | 0.00 | 0.80 | 0.00 | 100 | 1011.3 |
| 20260510091016 | 45 | 30 | 1.0 | 3.0 | 0.00 | 0.80 | 0.00 | 100 | 1011.2 |
| 20260510090516 | 45 | 22 | 0.0 | 3.0 | 0.00 | 0.80 | 0.00 | 100 | 1011.5 |
| 20260510090016 | 45 | 160 | 0.0 | 1.0 | 0.00 | 0.80 | 0.00 | 100 | 1011.5 |
| 20260510085016 | 45 | 160 | 0.0 | 1.0 | 0.00 | 0.80 | 0.00 | 100 | 1011.2 |
| 20260510084016 | 45 | 160 | 0.0 | 1.0 | 0.00 | 0.80 | 0.00 | 99 | 1011.4 |
| 20260510083516 | 45 | 160 | 0.0 | 2.0 | 0.00 | 0.80 | 0.00 | 99 | 1011.3 |
| 20260510082516 | 45 | 160 | 0.0 | 1.0 | 0.00 | 0.80 | 0.00 | 99 | 1011.5 |
| 20260510081516 | 45 | 160 | 0.0 | 2.0 | 0.00 | 0.80 | 0.00 | 99 | 1011.9 |
| 20260510081016 | 45 | 160 | 0.0 | 2.0 | 0.00 | 0.80 | 0.00 | 99 | 1011.8 |
| 20260510080516 | 45 | 160 | 0.0 | 2.0 | 0.00 | 0.80 | 0.00 | 99 | 1012.0 |
| 20260510080021 | 45 | 160 | 0.0 | 2.0 | 0.00 | 0.80 | 0.00 | 100 | 1012.0 |
| 20260510075515 | 45 | 160 | 0.0 | 2.0 | 0.00 | 0.80 | 0.00 | 99 | 1011.9 |
| 20260510075015 | 45 | 160 | 0.0 | 1.0 | 0.00 | 0.80 | 0.00 | 100 | 1012.0 |
| 20260510074516 | 45 | 160 | 0.0 | 2.0 | 0.00 | 0.80 | 0.00 | 99 | 1011.9 |
| 20260510074016 | 45 | 161 | 1.0 | 2.0 | 0.00 | 0.80 | 0.00 | 99 | 1011.9 |
| 20260510073516 | 45 | 161 | 0.0 | 2.0 | 0.00 | 0.80 | 0.00 | 100 | 1011.9 |
| 20260510072516 | 45 | 165 | 0.0 | 4.0 | 0.00 | 0.80 | 0.00 | 100 | 1012.1 |
| 20260510072016 | 45 | 26 | 0.0 | 2.0 | 0.00 | 0.80 | 0.00 | 99 | 1012.1 |
| 20260510071516 | 45 | 26 | 0.0 | 2.0 | 0.00 | 0.80 | 0.00 | 99 | 1012.0 |
| 20260510071016 | 45 | 26 | 1.0 | 2.0 | 0.00 | 0.80 | 0.00 | 99 | 1012.1 |
| 20260510070516 | 45 | 26 | 1.0 | 3.0 | 0.00 | 0.80 | 0.00 | 100 | 1011.9 |
| 20260510070016 | 45 | 136 | 1.0 | 3.0 | 0.00 | 0.80 | 0.00 | 99 | 1011.9 |
| 20260510065516 | 45 | 125 | 0.0 | 3.0 | 0.00 | 0.80 | 0.00 | 99 | 1011.8 |
| 20260510065016 | 45 | 174 | 0.0 | 3.0 | 0.00 | 0.80 | 0.00 | 99 | 1011.7 |
| 20260510063016 | 45 | 225 | 1.0 | 4.0 | 0.00 | 0.80 | 0.00 | 100 | 1011.5 |
| 20260510062516 | 45 | 88 | 1.0 | 4.0 | 0.00 | 0.80 | 0.00 | 99 | 1011.6 |
| 20260510062015 | 45 | 165 | 1.0 | 4.0 | 0.00 | 0.80 | 0.00 | 99 | 1011.6 |
| 20260510061516 | 45 | 17 | 1.0 | 4.0 | 0.00 | 0.80 | 0.00 | 99 | 1011.7 |
| 20260510061016 | 45 | 5 | 1.0 | 4.0 | 0.00 | 0.80 | 0.00 | 99 | 1011.8 |
| 20260510060016 | 45 | 238 | 0.0 | 4.0 | 0.00 | 0.80 | 0.00 | 99 | 1012.0 |
| 20260510055516 | 45 | 202 | 0.0 | 4.0 | 0.00 | 0.80 | 0.00 | 99 | 1012.1 |
| 20260510055016 | 44 | 59 | 0.0 | 2.0 | 0.00 | 0.80 | 0.00 | 99 | 1012.0 |
| 20260510054515 | 44 | 77 | 0.0 | 1.0 | 0.00 | 0.80 | 0.00 | 99 | 1012.0 |
| 20260510054015 | 44 | 77 | 0.0 | 2.0 | 0.00 | 0.80 | 0.00 | 99 | 1012.0 |
| 20260510053515 | 44 | 59 | 0.0 | 2.0 | 0.00 | 0.80 | 0.00 | 99 | 1012.0 |
| 20260510053016 | 44 | 71 | 0.0 | 3.0 | 0.00 | 0.80 | 0.00 | 99 | 1012.1 |
| 20260510052015 | 44 | 118 | 0.0 | 2.0 | 0.00 | 0.80 | 0.00 | 99 | 1012.1 |
| 20260510051516 | 44 | 118 | 0.0 | 2.0 | 0.00 | 0.80 | 0.00 | 99 | 1012.3 |
| 20260510051015 | 44 | 126 | 0.0 | 2.0 | 0.00 | 0.80 | 0.00 | 99 | 1012.4 |
| 20260510050515 | 44 | 126 | 0.0 | 2.0 | 0.00 | 0.80 | 0.00 | 99 | 1012.4 |
| 20260510050016 | 44 | 126 | 0.0 | 1.0 | 0.00 | 0.80 | 0.00 | 99 | 1012.4 |
| 20260510045515 | 44 | 126 | 0.0 | 3.0 | 0.00 | 0.80 | 0.00 | 99 | 1012.3 |
| 20260510045015 | 44 | 126 | 1.0 | 3.0 | 0.00 | 0.80 | 0.00 | 99 | 1012.4 |
| 20260510044516 | 44 | 66 | 0.0 | 2.0 | 0.00 | 0.80 | 0.00 | 99 | 1012.4 |
| 20260510043016 | 44 | 66 | 1.0 | 3.0 | 0.00 | 0.80 | 0.00 | 99 | 1012.3 |
| 20260510042515 | 44 | 66 | 1.0 | 3.0 | 0.00 | 0.80 | 0.00 | 99 | 1012.4 |
| 20260510042015 | 44 | 68 | 0.0 | 1.0 | 0.00 | 0.80 | 0.00 | 99 | 1012.4 |
| 20260510041516 | 44 | 360 | 0.0 | 3.0 | 0.00 | 0.80 | 0.00 | 99 | 1012.4 |
| 20260510041015 | 44 | 360 | 0.0 | 3.0 | 0.00 | 0.80 | 0.00 | 99 | 1012.4 |
| 20260510040515 | 44 | 360 | 0.0 | 1.0 | 0.00 | 0.80 | 0.00 | 99 | 1012.4 |
| 20260510040016 | 44 | 360 | 0.0 | 1.0 | 0.00 | 0.80 | 0.80 | 99 | 1012.3 |
| 20260510035016 | 44 | 360 | 0.0 | 1.0 | 0.00 | 0.80 | 0.80 | 99 | 1012.3 |
| 20260510034516 | 44 | 360 | 0.0 | 2.0 | 0.00 | 0.80 | 0.80 | 99 | 1012.4 |
| 20260510034015 | 44 | 360 | 0.0 | 1.0 | 0.00 | 0.80 | 0.80 | 99 | 1012.4 |
| 20260510033016 | 44 | 360 | 0.0 | 0.0 | 0.00 | 0.80 | 0.80 | 99 | 1012.6 |
| 20260510032516 | 44 | 360 | 0.0 | 1.0 | 0.00 | 0.80 | 0.80 | 99 | 1012.5 |
| 20260510032015 | 44 | 360 | 0.0 | 1.0 | 0.00 | 0.80 | 0.80 | 99 | 1012.4 |
| 20260510031516 | 44 | 360 | 0.0 | 1.0 | 0.00 | 0.80 | 0.80 | 99 | 1012.6 |
| 20260510031015 | 44 | 360 | 0.0 | 1.0 | 0.00 | 0.80 | 0.80 | 99 | 1012.5 |
| 20260510030515 | 44 | 360 | 0.0 | 1.0 | 0.00 | 0.80 | 0.80 | 99 | 1012.3 |
| 20260510030016 | 44 | 360 | 0.0 | 2.0 | 0.00 | 0.80 | 0.80 | 99 | 1012.3 |
| 20260510025515 | 44 | 360 | 0.0 | 2.0 | 0.00 | 0.80 | 0.80 | 99 | 1012.7 |
| 20260510025015 | 44 | 360 | 0.0 | 1.0 | 0.00 | 0.80 | 0.80 | 99 | 1012.5 |
| 20260510024516 | 44 | 360 | 0.0 | 1.0 | 0.00 | 0.80 | 0.80 | 99 | 1012.5 |
| 20260510024015 | 44 | 360 | 0.0 | 2.0 | 0.00 | 0.80 | 0.80 | 99 | 1012.6 |
| 20260510023515 | 44 | 360 | 0.0 | 2.0 | 0.00 | 0.80 | 0.80 | 99 | 1012.5 |
| 20260510023016 | 44 | 355 | 0.0 | 1.0 | 0.00 | 0.80 | 0.80 | 99 | 1012.7 |
| 20260510022515 | 44 | 355 | 0.0 | 1.0 | 0.00 | 0.80 | 0.80 | 99 | 1012.5 |
| 20260510021516 | 44 | 355 | 0.0 | 2.0 | 0.00 | 0.80 | 0.80 | 99 | 1012.4 |
| 20260510020515 | 44 | 355 | 0.0 | 1.0 | 0.00 | 0.80 | 0.80 | 99 | 1012.6 |
| 20260510015515 | 44 | 36 | 0.0 | 0.0 | 0.00 | 0.80 | 0.80 | 99 | 1012.8 |
| 20260510015015 | 44 | 36 | 0.0 | 0.0 | 0.00 | 0.80 | 0.80 | 99 | 1013.0 |
| 20260510013516 | 44 | 36 | 0.0 | 1.0 | 0.00 | 0.80 | 0.80 | 99 | 1012.8 |
| 20260510013016 | 44 | 36 | 0.0 | 1.0 | 0.00 | 0.80 | 0.80 | 99 | 1012.9 |
| 20260510012515 | 44 | 36 | 0.0 | 1.0 | 0.00 | 0.80 | 0.80 | 99 | 1012.8 |
| 20260510012015 | 44 | 36 | 0.0 | 2.0 | 0.00 | 0.80 | 0.80 | 99 | 1012.7 |
| 20260510011015 | 44 | 37 | 0.0 | 0.0 | 0.00 | 0.80 | 0.80 | 99 | 1012.5 |
| 20260510010515 | 44 | 37 | 0.0 | 0.0 | 0.00 | 0.80 | 0.80 | 99 | 1012.7 |
| 20260510005516 | 44 | 37 | 0.0 | 0.0 | 0.00 | 0.80 | 0.80 | 99 | 1012.5 |
| 20260510005015 | 44 | 37 | 0.0 | 0.0 | 0.00 | 0.80 | 0.80 | 99 | 1012.3 |
| 20260510004516 | 44 | 95 | 0.0 | 0.0 | 0.00 | 0.80 | 0.80 | 99 | 1012.4 |
| 20260510004015 | 44 | 95 | 0.0 | 0.0 | 0.00 | 0.80 | 0.80 | 99 | 1012.2 |
| 20260510003515 | 44 | 95 | 0.0 | 1.0 | 0.00 | 0.80 | 0.80 | 99 | 1012.2 |
| 20260510002515 | 44 | 95 | 0.0 | 1.0 | 0.00 | 0.80 | 0.80 | 99 | 1012.1 |
| 20260510002015 | 44 | 95 | 0.0 | 1.0 | 0.00 | 0.80 | 0.80 | 99 | 1012.0 |
| 20260510001515 | 44 | 95 | 0.0 | 1.0 | 0.00 | 0.80 | 0.80 | 99 | 1012.1 |
| 20260510001015 | 44 | 95 | 0.0 | 1.0 | 0.00 | 0.80 | 0.80 | 99 | 1012.0 |
| 20260510000515 | 45 | 95 | 0.0 | 2.0 | 0.00 | 0.80 | 0.80 | 99 | 1011.9 |
| 20260510000017 | 45 | 95 | 0.0 | 2.0 | 0.00 | 0.80 | 0.80 | 99 | 1012.0 |
| 20260509235515 | 45 | 95 | 0.0 | 2.0 | 0.00 | 0.80 | 0.80 | 99 | 1011.8 |
| 20260509235015 | 45 | 95 | 0.0 | 1.0 | 0.00 | 0.80 | 0.80 | 99 | 1011.7 |
| 20260509234515 | 45 | 95 | 0.0 | 1.0 | 0.00 | 0.80 | 0.80 | 99 | 1011.7 |
| 20260509234014 | 45 | 95 | 0.0 | 1.0 | 0.00 | 0.80 | 0.80 | 99 | 1011.7 |
| 20260509233514 | 45 | 95 | 0.0 | 1.0 | 0.00 | 0.80 | 0.80 | 99 | 1011.7 |
| 20260509233015 | 45 | 95 | 0.0 | 1.0 | 0.00 | 0.80 | 0.80 | 99 | 1011.6 |
| 20260509231515 | 45 | 95 | 0.0 | 1.0 | 0.00 | 0.80 | 0.80 | 99 | 1011.6 |
| 20260509231015 | 45 | 95 | 0.0 | 2.0 | 0.00 | 0.80 | 0.80 | 99 | 1011.6 |
| 20260509230514 | 45 | 94 | 0.0 | 2.0 | 0.00 | 0.80 | 0.80 | 99 | 1011.7 |
| 20260509230015 | 45 | 94 | 1.0 | 2.0 | 0.00 | 0.80 | 0.80 | 99 | 1011.7 |
| 20260509225515 | 45 | 94 | 0.0 | 2.0 | 0.00 | 0.80 | 0.80 | 99 | 1011.7 |
| 20260509225015 | 45 | 93 | 0.0 | 1.0 | 0.00 | 0.80 | 0.80 | 99 | 1011.6 |
| 20260509224515 | 45 | 93 | 0.0 | 1.0 | 0.00 | 0.80 | 0.80 | 99 | 1011.7 |
| 20260509224015 | 45 | 93 | 0.0 | 3.0 | 0.00 | 0.80 | 0.80 | 99 | 1011.6 |
| 20260509223514 | 45 | 93 | 0.0 | 3.0 | 0.00 | 0.80 | 0.80 | 99 | 1011.6 |
| 20260509223015 | 45 | 125 | 1.0 | 3.0 | 0.00 | 0.80 | 0.80 | 99 | 1011.7 |
| 20260509222514 | 45 | 170 | 1.0 | 3.0 | 0.00 | 0.80 | 0.80 | 99 | 1011.6 |
| 20260509222015 | 45 | 131 | 1.0 | 4.0 | 0.00 | 0.80 | 0.80 | 99 | 1011.7 |
| 20260509221515 | 44 | 131 | 1.0 | 4.0 | 0.00 | 0.80 | 0.80 | 99 | 1011.6 |
| 20260509221015 | 44 | 49 | 1.0 | 3.0 | 0.00 | 0.80 | 0.80 | 99 | 1011.6 |
| 20260509220514 | 44 | 36 | 1.0 | 3.0 | 0.01 | 0.80 | 0.80 | 99 | 1011.6 |
| 20260509220015 | 44 | 63 | 0.0 | 4.0 | 0.01 | 0.80 | 0.80 | 99 | 1011.6 |
| 20260509215515 | 44 | 63 | 0.0 | 4.0 | 0.01 | 0.80 | 0.80 | 99 | 1011.6 |
| 20260509215015 | 45 | 53 | 1.0 | 5.0 | 0.01 | 0.80 | 0.80 | 99 | 1011.7 |
| 20260509213515 | 44 | 48 | 1.0 | 3.0 | 0.03 | 0.80 | 0.80 | 99 | 1011.8 |
| 20260509213015 | 44 | 55 | 1.0 | 3.0 | 0.03 | 0.80 | 0.80 | 99 | 1011.9 |
| 20260509212515 | 44 | 55 | 1.0 | 3.0 | 0.04 | 0.80 | 0.80 | 99 | 1011.9 |
| 20260509211515 | 43 | 152 | 1.0 | 2.0 | 0.05 | 0.80 | 0.80 | 98 | 1012.0 |
| 20260509211015 | 43 | 152 | 1.0 | 4.0 | 0.05 | 0.80 | 0.80 | 99 | 1012.0 |
| 20260509210514 | 43 | 152 | 1.0 | 4.0 | 0.04 | 0.79 | 0.79 | 99 | 1012.1 |
| 20260509210015 | 42 | 43 | 1.0 | 2.0 | 0.05 | 0.79 | 0.79 | 98 | 1012.3 |
| 20260509205515 | 42 | 43 | 0.0 | 2.0 | 0.05 | 0.79 | 0.79 | 98 | 1012.4 |
| 20260509204014 | 42 | 43 | 0.0 | 2.0 | 0.06 | 0.78 | 0.78 | 98 | 1012.5 |
| 20260509203515 | 42 | 43 | 0.0 | 2.0 | 0.06 | 0.77 | 0.77 | 98 | 1012.6 |
| 20260509203015 | 42 | 43 | 0.0 | 1.0 | 0.08 | 0.77 | 0.77 | 98 | 1012.8 |
| 20260509202515 | 42 | 43 | 0.0 | 1.0 | 0.08 | 0.76 | 0.76 | 98 | 1012.7 |
| 20260509202015 | 42 | 43 | 0.0 | 0.0 | 0.08 | 0.76 | 0.76 | 98 | 1012.7 |
| 20260509201015 | 42 | 43 | 0.0 | 1.0 | 0.09 | 0.75 | 0.75 | 98 | 1012.8 |
| 20260509200514 | 42 | 43 | 0.0 | 2.0 | 0.09 | 0.75 | 0.75 | 98 | 1012.8 |
| 20260509200015 | 42 | 43 | 0.0 | 2.0 | 0.09 | 0.74 | 0.74 | 98 | 1012.7 |
| 20260509195515 | 42 | 43 | 1.0 | 2.0 | 0.09 | 0.74 | 0.74 | 98 | 1013.0 |
| 20260509194015 | 41 | 43 | 0.0 | 1.0 | 0.10 | 0.72 | 0.72 | 98 | 1012.8 |
| 20260509193514 | 41 | 43 | 0.0 | 1.0 | 0.10 | 0.71 | 0.71 | 98 | 1012.8 |
| 20260509192515 | 41 | 43 | 0.0 | 2.0 | 0.09 | 0.68 | 0.68 | 98 | 1012.8 |
| 20260509192015 | 41 | 43 | 1.0 | 2.0 | 0.10 | 0.68 | 0.68 | 98 | 1012.8 |
| 20260509191014 | 41 | 43 | 0.0 | 2.0 | 0.10 | 0.66 | 0.66 | 98 | 1012.8 |
| 20260509190015 | 40 | 43 | 1.0 | 2.0 | 0.12 | 0.65 | 0.65 | 98 | 1013.0 |
| 20260509185515 | 40 | 43 | 0.0 | 3.0 | 0.13 | 0.65 | 0.65 | 98 | 1013.1 |
| 20260509185015 | 40 | 43 | 0.0 | 3.0 | 0.13 | 0.64 | 0.64 | 98 | 1013.1 |
| 20260509184515 | 40 | 43 | 0.0 | 1.0 | 0.13 | 0.63 | 0.63 | 98 | 1013.1 |
| 20260509184015 | 40 | 43 | 1.0 | 2.0 | 0.12 | 0.62 | 0.62 | 98 | 1013.1 |
| 20260509183015 | 40 | 43 | 1.0 | 2.0 | 0.12 | 0.60 | 0.60 | 98 | 1013.3 |
| 20260509182015 | 41 | 43 | 1.0 | 2.0 | 0.12 | 0.58 | 0.58 | 98 | 1013.4 |
| 20260509181514 | 40 | 43 | 1.0 | 2.0 | 0.11 | 0.57 | 0.57 | 98 | 1013.4 |
| 20260509180015 | 41 | 43 | 0.0 | 2.0 | 0.10 | 0.53 | 0.53 | 98 | 1013.4 |
| 20260509175515 | 41 | 43 | 0.0 | 2.0 | 0.09 | 0.52 | 0.52 | 98 | 1013.4 |
| 20260509174515 | 41 | 43 | 0.0 | 2.0 | 0.08 | 0.50 | 0.50 | 98 | 1013.5 |
| 20260509174014 | 41 | 43 | 0.0 | 2.0 | 0.09 | 0.50 | 0.50 | 98 | 1013.4 |
| 20260509173514 | 40 | 43 | 1.0 | 1.0 | 0.08 | 0.49 | 0.49 | 98 | 1013.5 |
| 20260509173015 | 40 | 43 | 1.0 | 2.0 | 0.08 | 0.48 | 0.48 | 97 | 1013.5 |
| 20260509172514 | 41 | 43 | 0.0 | 2.0 | 0.08 | 0.47 | 0.47 | 98 | 1013.6 |
| 20260509172014 | 41 | 43 | 0.0 | 0.0 | 0.08 | 0.46 | 0.46 | 98 | 1013.6 |
| 20260509171014 | 41 | 43 | 0.0 | 0.0 | 0.09 | 0.45 | 0.45 | 98 | 1013.7 |
| 20260509170514 | 41 | 43 | 0.0 | 1.0 | 0.09 | 0.44 | 0.44 | 98 | 1013.8 |
| 20260509165514 | 40 | 43 | 0.0 | 2.0 | 0.09 | 0.43 | 0.43 | 97 | 1013.8 |
| 20260509165014 | 40 | 43 | 0.0 | 1.0 | 0.09 | 0.42 | 0.42 | 98 | 1013.8 |
| 20260509164515 | 40 | 43 | 0.0 | 1.0 | 0.10 | 0.42 | 0.42 | 98 | 1013.9 |
| 20260509164015 | 40 | 43 | 0.0 | 2.0 | 0.11 | 0.41 | 0.41 | 98 | 1013.9 |
| 20260509163514 | 40 | 43 | 0.0 | 2.0 | 0.12 | 0.41 | 0.41 | 97 | 1013.9 |
| 20260509162514 | 40 | 43 | 0.0 | 2.0 | 0.12 | 0.39 | 0.39 | 97 | 1014.0 |
| 20260509162014 | 40 | 43 | 1.0 | 2.0 | 0.12 | 0.38 | 0.38 | 97 | 1014.0 |
| 20260509161515 | 40 | 43 | 0.0 | 1.0 | 0.12 | 0.37 | 0.37 | 98 | 1014.1 |
| 20260509161014 | 39 | 43 | 1.0 | 2.0 | 0.12 | 0.36 | 0.36 | 97 | 1014.1 |
| 20260509160514 | 39 | 43 | 1.0 | 2.0 | 0.12 | 0.35 | 0.35 | 97 | 1014.1 |
| 20260509160015 | 39 | 43 | 0.0 | 2.0 | 0.13 | 0.35 | 0.35 | 97 | 1014.2 |
| 20260509155515 | 39 | 44 | 0.0 | 2.0 | 0.13 | 0.34 | 0.34 | 97 | 1014.2 |
| 20260509155014 | 39 | 44 | 0.0 | 1.0 | 0.13 | 0.33 | 0.33 | 97 | 1014.4 |
| 20260509154014 | 39 | 44 | 0.0 | 1.0 | 0.12 | 0.30 | 0.30 | 97 | 1014.5 |
| 20260509153514 | 38 | 44 | 0.0 | 1.0 | 0.12 | 0.29 | 0.29 | 97 | 1014.6 |
| 20260509153014 | 38 | 44 | 0.0 | 2.0 | 0.13 | 0.28 | 0.28 | 97 | 1014.6 |
| 20260509152514 | 38 | 44 | 0.0 | 2.0 | 0.13 | 0.27 | 0.27 | 97 | 1014.7 |
| 20260509152014 | 38 | 44 | 0.0 | 3.0 | 0.13 | 0.26 | 0.26 | 97 | 1014.7 |
| 20260509151514 | 38 | 360 | 1.0 | 3.0 | 0.13 | 0.25 | 0.25 | 97 | 1014.6 |
| 20260509151014 | 38 | 76 | 1.0 | 2.0 | 0.12 | 0.24 | 0.24 | 97 | 1014.7 |
| 20260509150514 | 38 | 76 | 0.0 | 2.0 | 0.12 | 0.23 | 0.23 | 97 | 1014.8 |
| 20260509150015 | 38 | 13 | 0.0 | 2.0 | 0.11 | 0.22 | 0.22 | 97 | 1014.7 |
| 20260509145515 | 38 | 13 | 1.0 | 2.0 | 0.11 | 0.21 | 0.21 | 97 | 1014.7 |
| 20260509144016 | 38 | 360 | 0.0 | 2.0 | 0.08 | 0.18 | 0.18 | 96 | 1014.7 |
| 20260509143514 | 39 | 29 | 0.0 | 1.0 | 0.08 | 0.17 | 0.17 | 96 | 1014.7 |
| 20260509143015 | 39 | 29 | 0.0 | 2.0 | 0.06 | 0.15 | 0.15 | 96 | 1014.8 |
| 20260509142514 | 39 | 5 | 0.0 | 2.0 | 0.05 | 0.14 | 0.14 | 97 | 1014.7 |
| 20260509142014 | 39 | 5 | 0.0 | 2.0 | 0.04 | 0.13 | 0.13 | 97 | 1014.6 |
| 20260509141014 | 39 | 360 | 1.0 | 2.0 | 0.04 | 0.12 | 0.12 | 96 | 1014.6 |
| 20260509140514 | 38 | 41 | 1.0 | 3.0 | 0.04 | 0.11 | 0.11 | 96 | 1014.5 |
| 20260509140015 | 38 | 57 | 1.0 | 3.0 | 0.04 | 0.11 | 0.11 | 96 | 1014.5 |
| 20260509135514 | 38 | 90 | 1.0 | 3.0 | 0.04 | 0.10 | 0.10 | 96 | 1014.5 |
| 20260509135015 | 38 | 88 | 0.0 | 3.0 | 0.05 | 0.10 | 0.10 | 96 | 1014.6 |